Weather History for La Crosse, WI

Change the Weather History Date:

Friday, February 8, 2013

  Actual Average Record
Temperature  
Mean Temperature 21 °F 20 °F  
Max Temperature 30 °F 29 °F 51 °F (2002)
Min Temperature 11 °F 11 °F -36 °F (1971)
Degree Days  
Heating Degree Days 44 45  
Month to date heating degree days 411 365  
Since 1 July heating degree days 4496 4684  
Cooling Degree Days 0 0  
Month to date cooling degree days 0 0  
Year to date cooling degree days 0 0  
Moisture  
Dew Point 14 °F    
Average Humidity 65    
Maximum Humidity 84    
Minimum Humidity 46    
Precipitation  
Precipitation T in 0.04 in 1.01 in (1966)
Month to date precipitation 0.40 0.28  
Year to date precipitation 1.49 1.40  
Snow  
Snow T in 0.30 in 4.60 in (1936)
Month to date snowfall 7.4 2.6  
Since 1 July snowfall 32.3 28.9  
Snow Depth 10.00 in    
Sea Level Pressure  
Sea Level Pressure 30.35 in    
Wind  
Wind Speed 4 mph (NNE)    
Max Wind Speed 12 mph    
Max Gust Speed 16 mph    
Visibility 10 miles    
Events      
T = Trace of Precipitation, MM = Missing Value Source: NWS Daily Summary

Daily Weather History Graph

Daily Weather History Graph

Search for Another Location

Airport:

Trip Planner

Search our weather history database for the weather conditions in past years. The results will help you decide how hot, cold, wet, or windy it might be!

Date:

Astronomy

Feb. 08, 2013 Rise Set
Actual Time 7:13 AM CST 5:25 PM CST
Civil Twilight 6:43 AM CST 5:55 PM CST
Nautical Twilight 6:09 AM CST 6:29 PM CST
Astronomical Twilight 5:35 AM CST 7:03 PM CST
Moon 5:43 AM CST (2/8) 3:58 PM CST (2/8)
Length of Visible Light 11h 12m
Length of Day
10h 12m
Waning Crescent, 3% of the Moon is Illuminated
Feb 8
Waning Crescent
Feb 10
New
Feb 17
First Quarter
Feb 25
Full
Mar 4
Last Quarter

Hourly Weather History & Observations

Time (CST) Temp. Windchill Dew Point Humidity Pressure Visibility Wind Dir Wind Speed Gust Speed Precip Events Conditions
12:53 AM 26.1 °F 17.6 °F 23.0 °F 88% 30.25 in 8.0 mi North 8.1 mph - N/A   Overcast
1:53 AM 26.1 °F 15.6 °F 21.9 °F 84% 30.26 in 10.0 mi North 11.5 mph - N/A   Overcast
2:08 AM 26.6 °F 18.2 °F 21.2 °F 80% 30.22 in 10.0 mi NNE 8.1 mph - N/A   Overcast
2:53 AM 26.1 °F 19.4 °F 19.9 °F 78% 30.29 in 10.0 mi North 5.8 mph - N/A   Overcast
3:04 AM 24.8 °F 17.9 °F 21.2 °F 86% 30.24 in 10.0 mi North 5.8 mph - N/A   Overcast
3:53 AM 25.0 °F 17.1 °F 19.0 °F 78% 30.30 in 10.0 mi North 6.9 mph - N/A   Overcast
4:00 AM 24.8 °F 16.9 °F 19.4 °F 80% 30.26 in 10.0 mi North 6.9 mph - N/A   Overcast
4:33 AM 24.8 °F 17.9 °F 17.6 °F 74% 30.27 in 10.0 mi North 5.8 mph - N/A   Overcast
4:53 AM 24.1 °F 18.2 °F 18.0 °F 77% 30.32 in 10.0 mi NNE 4.6 mph - N/A   Overcast
5:53 AM 23.0 °F 13.9 °F 16.0 °F 74% 30.35 in 10.0 mi ENE 8.1 mph - N/A   Overcast
6:53 AM 21.9 °F 14.5 °F 15.1 °F 75% 30.37 in 10.0 mi NE 5.8 mph - N/A   Overcast
7:53 AM 21.9 °F 15.7 °F 15.1 °F 75% 30.40 in 10.0 mi NNE 4.6 mph - N/A   Overcast
8:53 AM 21.9 °F 12.5 °F 14.0 °F 72% 30.42 in 10.0 mi North 8.1 mph - N/A   Overcast
9:53 AM 21.9 °F 15.7 °F 12.9 °F 68% 30.43 in 10.0 mi NNE 4.6 mph - N/A   Overcast
10:53 AM 23.0 °F 17.0 °F 12.9 °F 65% 30.43 in 10.0 mi NNW 4.6 mph - N/A   Scattered Clouds
11:53 AM 24.1 °F 18.2 °F 12.0 °F 60% 30.42 in 10.0 mi WNW 4.6 mph - N/A   Clear
12:53 PM 25.0 °F 19.3 °F 12.0 °F 58% 30.41 in 10.0 mi WNW 4.6 mph - N/A   Clear
1:53 PM 28.0 °F - 12.0 °F 51% 30.40 in 10.0 mi Calm Calm - N/A   Clear
2:53 PM 28.9 °F - 10.9 °F 47% 30.39 in 10.0 mi Calm Calm - N/A   Clear
3:53 PM 28.0 °F - 10.9 °F 49% 30.38 in 10.0 mi Calm Calm - N/A   Clear
4:53 PM 21.9 °F - 10.0 °F 60% 30.39 in 10.0 mi Calm Calm - N/A   Clear
5:53 PM 16.0 °F - 9.0 °F 74% 30.38 in 10.0 mi Calm Calm - N/A   Clear
6:53 PM 18.0 °F - 10.0 °F 71% 30.38 in 10.0 mi Calm Calm - N/A   Clear
7:53 PM 19.0 °F 13.9 °F 12.0 °F 74% 30.38 in 10.0 mi ESE 3.5 mph - N/A   Clear
8:53 PM 15.1 °F 6.4 °F 9.0 °F 77% 30.38 in 10.0 mi ESE 5.8 mph - N/A   Clear
9:53 PM 12.9 °F 2.6 °F 8.1 °F 81% 30.38 in 10.0 mi SE 6.9 mph - N/A   Clear
10:53 PM 12.0 °F 2.7 °F 7.0 °F 80% 30.38 in 10.0 mi SE 5.8 mph - N/A   Clear
11:27 PM 12.2 °F 4.3 °F 8.6 °F 85% 30.32 in 10.0 mi SE 4.6 mph - N/A   Mostly Cloudy
11:53 PM 12.0 °F - 9.0 °F 88% 30.39 in 10.0 mi Calm Calm - N/A   Overcast